"Period start","avg(HW err(1)/warn(2) (#))","avg(Visibility (m))","avg(Weather code (#))","avg(Precip intensity (mm/h))","min(HW err(1)/warn(2) (#))","max(HW err(1)/warn(2) (#))","std(HW err(1)/warn(2) (#))","med(HW err(1)/warn(2) (#))","min(Visibility (m))","max(Visibility (m))","std(Visibility (m))","med(Visibility (m))","min(Weather code (#))","max(Weather code (#))","std(Weather code (#))","med(Weather code (#))","min(Precip intensity (mm/h))","max(Precip intensity (mm/h))","std(Precip intensity (mm/h))","med(Precip intensity (mm/h))"
2017-10-27 00:00:00,2,7506,71,0.78,2,2,0,2,6271,10080,1076,7436,71,71,0,71,0.35,1.85,0.47,0.57
2017-10-27 00:10:00,2,11117,71,0.38,2,2,0,2,8303,13870,2038,12052,71,71,0,71,0.10,0.95,0.27,0.30
2017-10-27 00:20:00,2,17636,73,0.10,2,2,0,2,11478,22706,3384,17722,71,77,3,71,0.00,0.25,0.08,0.08
2017-10-27 00:30:00,2,38586,74,0.00,2,2,0,2,30105,43704,4356,39796,71,78,3,74,0.00,0.00,0.00,0.00
2017-10-27 00:40:00,2,34856,78,0.01,2,2,0,2,24902,47382,7564,33780,78,78,0,78,0.00,0.05,0.02,0.00
2017-10-27 00:50:00,2,36320,78,0.01,2,2,0,2,18490,48885,10372,41920,78,78,0,78,0.00,0.05,0.02,0.00
2017-10-27 01:00:00,2,22961,78,0.01,2,2,0,2,18028,27111,3187,22746,77,78,0,78,0.00,0.05,0.02,0.00
2017-10-27 01:10:00,2,19164,78,0.06,2,2,0,2,15240,23094,2524,19099,77,78,0,78,0.05,0.10,0.02,0.05
2017-10-27 01:20:00,2,17296,77,0.03,2,2,0,2,13632,20216,1963,17314,77,78,0,77,0.00,0.05,0.02,0.05
2017-10-27 01:30:00,2,19512,78,0.01,2,2,0,2,12855,41201,8710,15449,78,78,0,78,0.00,0.05,0.02,0.00
2017-10-27 01:40:00,2,49512,16,0.00,2,2,0,2,47802,50000,725,50000,0,78,31,0,0.00,0.00,0.00,0.00
2017-10-27 01:50:00,2,49760,0,0.00,2,2,0,2,48579,50000,490,50000,0,0,0,0,0.00,0.00,0.00,0.00
2017-10-27 02:00:00,2,47722,0,0.00,2,2,0,2,37399,50000,4059,50000,0,0,0,0,0.00,0.00,0.00,0.00
2017-10-27 02:10:00,2,30936,69,0.00,2,2,0,2,24061,34330,2894,31419,0,78,23,78,0.00,0.00,0.00,0.00
2017-10-27 02:20:00,2,14135,75,0.04,2,2,0,2,9934,22186,3499,12946,71,78,3,77,0.00,0.10,0.03,0.05
2017-10-27 02:30:00,2,9331,73,0.14,2,2,0,2,8123,11722,1134,8792,71,78,3,71,0.05,0.35,0.08,0.15
2017-10-27 02:40:00,2,8546,71,0.35,2,2,0,2,5293,12730,2538,8128,71,71,0,71,0.05,0.85,0.24,0.25
2017-10-27 02:50:00,2,8097,71,0.29,2,2,0,2,6073,10446,1317,7948,71,71,0,71,0.10,0.50,0.12,0.25
2017-10-27 03:00:00,2,5585,75,0.18,2,2,0,2,4761,7298,723,5431,71,77,3,77,0.10,0.35,0.07,0.17
2017-10-27 03:10:00,2,7923,77,0.06,2,2,0,2,7420,9241,521,7738,77,77,0,77,0.05,0.10,0.02,0.05
2017-10-27 03:20:00,2,14998,78,0.02,2,2,0,2,8273,26421,5459,14438,77,78,0,78,0.00,0.05,0.02,0.00
2017-10-27 03:30:00,2,15686,78,0.00,2,2,0,2,11092,19077,2804,15920,78,78,0,78,0.00,0.00,0.00,0.00
2017-10-27 03:40:00,2,25521,78,0.01,2,2,0,2,11881,50000,11337,21446,78,78,0,78,0.00,0.05,0.02,0.00
2017-10-27 03:50:00,2,42542,78,0.00,2,2,0,2,33789,50000,5793,42446,78,78,0,78,0.00,0.00,0.00,0.00
2017-10-27 04:00:00,2,46206,16,0.00,2,2,0,2,28523,50000,6921,49988,0,78,31,0,0.00,0.00,0.00,0.00
2017-10-27 04:10:00,2,47653,0,0.00,2,2,0,2,38905,50000,3313,49184,0,0,0,0,0.00,0.00,0.00,0.00
2017-10-27 04:20:00,2,50000,0,0.00,2,2,0,2,50000,50000,0,50000,0,0,0,0,0.00,0.00,0.00,0.00
"Period start","avg(HW err(1)/warn(2) (#))","avg(Visibility (m))","avg(Weather code (#))","avg(Precip intensity (mm/h))","min(HW err(1)/warn(2) (#))","max(HW err(1)/warn(2) (#))","std(HW err(1)/warn(2) (#))","med(HW err(1)/warn(2) (#))","min(Visibility (m))","max(Visibility (m))","std(Visibility (m))","med(Visibility (m))","min(Weather code (#))","max(Weather code (#))","std(Weather code (#))","med(Weather code (#))","min(Precip intensity (mm/h))","max(Precip intensity (mm/h))","std(Precip intensity (mm/h))","med(Precip intensity (mm/h))"
2017-10-27 04:40:00,2,8526,76,0.09,2,2,0,2,7431,10224,773,8352,71,77,2,77,0.05,0.15,0.03,0.10
2017-10-27 04:50:00,2,9607,77,0.04,2,2,0,2,8303,10480,700,9824,77,78,0,77,0.00,0.10,0.03,0.05
2017-10-27 05:00:00,2,8973,77,0.10,2,2,0,2,7659,10339,924,9120,77,78,0,77,0.05,0.25,0.07,0.05
2017-10-27 05:10:00,2,21799,78,0.00,2,2,0,2,11323,33426,7523,19907,77,78,0,78,0.00,0.00,0.00,0.00
2017-10-27 05:20:00,2,27383,78,0.00,2,2,0,2,15561,43247,9552,26628,78,78,0,78,0.00,0.00,0.00,0.00
2017-10-27 05:30:00,2,39318,62,0.00,2,2,0,2,21847,50000,10592,44010,0,78,31,78,0.00,0.00,0.00,0.00
2017-10-27 05:40:00,2,49822,0,0.00,2,2,0,2,49234,50000,286,50000,0,0,0,0,0.00,0.00,0.00,0.00
2017-10-27 05:50:00,2,35998,38,0.00,2,2,0,2,24072,50000,7965,33810,0,78,38,36,0.00,0.00,0.00,0.00
2017-10-27 06:00:00,2,49788,31,0.00,2,2,0,2,47876,50000,637,50000,0,78,38,0,0.00,0.00,0.00,0.00
2017-10-27 06:10:00,2,50000,0,0.00,2,2,0,2,50000,50000,0,50000,0,0,0,0,0.00,0.00,0.00,0.00
2017-10-27 06:20:00,2,50000,0,0.00,2,2,0,2,50000,50000,0,50000,0,0,0,0,0.00,0.00,0.00,0.00
2017-10-27 06:30:00,2,50000,0,0.00,2,2,0,2,50000,50000,0,50000,0,0,0,0,0.00,0.00,0.00,0.00
2017-10-27 06:40:00,2,50000,0,0.00,2,2,0,2,50000,50000,0,50000,0,0,0,0,0.00,0.00,0.00,0.00
2017-10-27 06:50:00,2,49506,0,0.00,2,2,0,2,46625,50000,1067,50000,0,0,0,0,0.00,0.00,0.00,0.00
2017-10-27 07:00:00,2,38997,0,0.00,2,2,0,2,32652,44279,3637,39458,0,0,0,0,0.00,0.00,0.00,0.00
2017-10-27 07:10:00,2,24037,53,0.00,2,2,0,2,17986,34948,5199,21836,0,78,35,74,0.00,0.00,0.00,0.00
2017-10-27 07:20:00,2,47478,23,0.00,2,2,0,2,33933,50000,4916,50000,0,78,36,0,0.00,0.00,0.00,0.00
2017-10-27 07:30:00,2,48107,0,0.00,2,2,0,2,34447,50000,4663,50000,0,0,0,0,0.00,0.00,0.00,0.00
2017-10-27 07:40:00,2,26287,53,0.00,2,2,0,2,21241,29968,2759,26818,0,78,35,74,0.00,0.00,0.00,0.00
2017-10-27 07:50:00,2,14422,76,0.06,2,2,0,2,10103,21192,2770,13972,71,78,3,78,0.00,0.25,0.08,0.03
2017-10-27 08:00:00,2,19616,74,0.02,2,2,0,2,11909,41895,8820,15699,71,78,3,74,0.00,0.10,0.03,0.00
2017-10-27 08:10:00,2,16957,78,0.03,2,2,0,2,11800,27862,5020,15607,78,78,0,78,0.00,0.05,0.03,0.03
2017-10-27 08:20:00,2,42709,31,0.01,2,2,0,2,13831,50000,12185,49335,0,78,38,0,0.00,0.05,0.02,0.00
2017-10-27 08:30:00,2,17874,61,0.00,2,2,0,2,12900,32200,6890,14036,0,78,31,78,0.00,0.00,0.00,0.00
2017-10-27 08:40:00,2,49392,8,0.00,2,2,0,2,43916,50000,1825,50000,0,78,23,0,0.00,0.00,0.00,0.00
2017-10-27 08:50:00,2,49175,0,0.00,2,2,0,2,45294,50000,1510,50000,0,0,0,0,0.00,0.00,0.00,0.00
2017-10-27 09:00:00,2,47695,0,0.00,2,2,0,2,43919,50000,2066,47640,0,0,0,0,0.00,0.00,0.00,0.00
2017-10-27 09:10:00,2,50000,0,0.00,2,2,0,2,50000,50000,0,50000,0,0,0,0,0.00,0.00,0.00,0.00
2017-10-27 09:20:00,2,50000,0,0.00,2,2,0,2,50000,50000,0,50000,0,0,0,0,0.00,0.00,0.00,0.00
2017-10-27 09:30:00,2,50000,0,0.00,2,2,0,2,50000,50000,0,50000,0,0,0,0,0.00,0.00,0.00,0.00
2017-10-27 09:40:00,2,50000,0,0.00,2,2,0,2,50000,50000,0,50000,0,0,0,0,0.00,0.00,0.00,0.00
2017-10-27 09:50:00,2,50000,0,0.00,2,2,0,2,50000,50000,0,50000,0,0,0,0,0.00,0.00,0.00,0.00
2017-10-27 10:00:00,2,50000,0,0.00,2,2,0,2,50000,50000,0,50000,0,0,0,0,0.00,0.00,0.00,0.00
2017-10-27 10:10:00,2,49890,0,0.00,2,2,0,2,48897,50000,331,50000,0,0,0,0,0.00,0.00,0.00,0.00
2017-10-27 10:20:00,2,50000,0,0.00,2,2,0,2,50000,50000,0,50000,0,0,0,0,0.00,0.00,0.00,0.00
2017-10-27 10:30:00,2,50000,0,0.00,2,2,0,2,50000,50000,0,50000,0,0,0,0,0.00,0.00,0.00,0.00
2017-10-27 10:40:00,2,50000,0,0.00,2,2,0,2,50000,50000,0,50000,0,0,0,0,0.00,0.00,0.00,0.00
2017-10-27 10:50:00,2,50000,0,0.00,2,2,0,2,50000,50000,0,50000,0,0,0,0,0.00,0.00,0.00,0.00
2017-10-27 11:00:00,2,49861,0,0.00,2,2,0,2,48608,50000,418,50000,0,0,0,0,0.00,0.00,0.00,0.00
2017-10-27 11:10:00,2,50000,0,0.00,2,2,0,2,50000,50000,0,50000,0,0,0,0,0.00,0.00,0.00,0.00
2017-10-27 11:20:00,2,50000,0,0.00,2,2,0,2,50000,50000,0,50000,0,0,0,0,0.00,0.00,0.00,0.00
2017-10-27 11:30:00,2,50000,0,0.00,2,2,0,2,50000,50000,0,50000,0,0,0,0,0.00,0.00,0.00,0.00
2017-10-27 11:40:00,2,50000,0,0.00,2,2,0,2,50000,50000,0,50000,0,0,0,0,0.00,0.00,0.00,0.00
2017-10-27 11:50:00,2,50000,0,0.00,2,2,0,2,50000,50000,0,50000,0,0,0,0,0.00,0.00,0.00,0.00
2017-10-27 12:00:00,2,50000,0,0.00,2,2,0,2,50000,50000,0,50000,0,0,0,0,0.00,0.00,0.00,0.00
2017-10-27 12:10:00,2,50000,0,0.00,2,2,0,2,50000,50000,0,50000,0,0,0,0,0.00,0.00,0.00,0.00
2017-10-27 12:20:00,2,50000,0,0.00,2,2,0,2,50000,50000,0,50000,0,0,0,0,0.00,0.00,0.00,0.00
2017-10-27 12:30:00,2,49912,0,0.00,2,2,0,2,49118,50000,265,50000,0,0,0,0,0.00,0.00,0.00,0.00
2017-10-27 12:40:00,2,50000,0,0.00,2,2,0,2,50000,50000,0,50000,0,0,0,0,0.00,0.00,0.00,0.00
2017-10-27 12:50:00,2,50000,0,0.00,2,2,0,2,50000,50000,0,50000,0,0,0,0,0.00,0.00,0.00,0.00
2017-10-27 13:00:00,2,49971,0,0.00,2,2,0,2,49708,50000,88,50000,0,0,0,0,0.00,0.00,0.00,0.00
2017-10-27 13:10:00,2,48670,14,0.00,2,2,0,2,43835,50000,1953,50000,0,71,28,0,0.00,0.00,0.00,0.00
2017-10-27 13:20:00,2,31477,76,0.03,2,2,0,2,20090,41182,7053,29973,71,78,3,77,0.00,0.10,0.03,0.03
2017-10-27 13:30:00,2,15270,72,0.11,2,2,0,2,11906,24929,4031,13634,71,77,2,71,0.05,0.25,0.05,0.10
2017-10-27 13:40:00,2,19680,76,0.03,2,2,0,2,10676,33128,6273,19585,71,78,3,77,0.00,0.05,0.03,0.03
2017-10-27 13:50:00,2,44824,78,0.00,2,2,0,2,34519,50000,5525,47042,78,78,0,78,0.00,0.00,0.00,0.00
2017-10-27 14:00:00,2,42914,0,0.00,2,2,0,2,34804,50000,5164,41714,0,0,0,0,0.00,0.00,0.00,0.00
2017-10-27 14:10:00,2,49524,0,0.00,2,2,0,2,47191,50000,907,50000,0,0,0,0,0.00,0.00,0.00,0.00
2017-10-27 14:20:00,2,50000,0,0.00,2,2,0,2,50000,50000,0,50000,0,0,0,0,0.00,0.00,0.00,0.00
2017-10-27 14:30:00,2,50000,0,0.00,2,2,0,2,50000,50000,0,50000,0,0,0,0,0.00,0.00,0.00,0.00
2017-10-27 14:40:00,2,50000,0,0.00,2,2,0,2,50000,50000,0,50000,0,0,0,0,0.00,0.00,0.00,0.00
2017-10-27 14:50:00,2,50000,0,0.00,2,2,0,2,50000,50000,0,50000,0,0,0,0,0.00,0.00,0.00,0.00
2017-10-27 15:00:00,2,50000,0,0.00,2,2,0,2,50000,50000,0,50000,0,0,0,0,0.00,0.00,0.00,0.00
2017-10-27 15:10:00,2,50000,0,0.00,2,2,0,2,50000,50000,0,50000,0,0,0,0,0.00,0.00,0.00,0.00
2017-10-27 15:20:00,2,50000,0,0.00,2,2,0,2,50000,50000,0,50000,0,0,0,0,0.00,0.00,0.00,0.00
2017-10-27 15:30:00,2,49829,0,0.00,2,2,0,2,48780,50000,379,50000,0,0,0,0,0.00,0.00,0.00,0.00
2017-10-27 15:40:00,2,50000,0,0.00,2,2,0,2,50000,50000,0,50000,0,0,0,0,0.00,0.00,0.00,0.00
2017-10-27 15:50:00,2,50000,0,0.00,2,2,0,2,50000,50000,0,50000,0,0,0,0,0.00,0.00,0.00,0.00
2017-10-27 16:00:00,2,47668,0,0.00,2,2,0,2,35902,50000,4187,50000,0,0,0,0,0.00,0.00,0.00,0.00
2017-10-27 16:10:00,2,18228,0,0.00,2,2,0,2,14911,23471,2350,17616,0,0,0,0,0.00,0.00,0.00,0.00
2017-10-27 16:20:00,2,46264,0,0.00,2,2,0,2,28275,50000,6562,49608,0,0,0,0,0.00,0.00,0.00,0.00
2017-10-27 16:30:00,2,50000,0,0.00,2,2,0,2,50000,50000,0,50000,0,0,0,0,0.00,0.00,0.00,0.00
2017-10-27 16:40:00,2,50000,0,0.00,2,2,0,2,50000,50000,0,50000,0,0,0,0,0.00,0.00,0.00,0.00
2017-10-27 16:50:00,2,50000,0,0.00,2,2,0,2,50000,50000,0,50000,0,0,0,0,0.00,0.00,0.00,0.00
2017-10-27 17:00:00,2,50000,0,0.00,2,2,0,2,50000,50000,0,50000,0,0,0,0,0.00,0.00,0.00,0.00
2017-10-27 17:10:00,2,50000,0,0.00,2,2,0,2,50000,50000,0,50000,0,0,0,0,0.00,0.00,0.00,0.00
2017-10-27 17:20:00,2,50000,0,0.00,2,2,0,2,50000,50000,0,50000,0,0,0,0,0.00,0.00,0.00,0.00
2017-10-27 17:30:00,2,50000,0,0.00,2,2,0,2,50000,50000,0,50000,0,0,0,0,0.00,0.00,0.00,0.00
2017-10-27 17:40:00,2,50000,0,0.00,2,2,0,2,50000,50000,0,50000,0,0,0,0,0.00,0.00,0.00,0.00
2017-10-27 17:50:00,2,50000,0,0.00,2,2,0,2,50000,50000,0,50000,0,0,0,0,0.00,0.00,0.00,0.00
2017-10-27 18:00:00,2,50000,0,0.00,2,2,0,2,50000,50000,0,50000,0,0,0,0,0.00,0.00,0.00,0.00
2017-10-27 18:10:00,2,50000,0,0.00,2,2,0,2,50000,50000,0,50000,0,0,0,0,0.00,0.00,0.00,0.00
2017-10-27 18:20:00,2,50000,0,0.00,2,2,0,2,50000,50000,0,50000,0,0,0,0,0.00,0.00,0.00,0.00
2017-10-27 18:30:00,2,49996,0,0.00,2,2,0,2,49966,50000,11,50000,0,0,0,0,0.00,0.00,0.00,0.00
2017-10-27 18:40:00,2,50000,0,0.00,2,2,0,2,50000,50000,0,50000,0,0,0,0,0.00,0.00,0.00,0.00
2017-10-27 18:50:00,2,50000,0,0.00,2,2,0,2,50000,50000,0,50000,0,0,0,0,0.00,0.00,0.00,0.00
2017-10-27 19:00:00,2,50000,0,0.00,2,2,0,2,50000,50000,0,50000,0,0,0,0,0.00,0.00,0.00,0.00
2017-10-27 19:10:00,2,49977,0,0.00,2,2,0,2,49774,50000,68,50000,0,0,0,0,0.00,0.00,0.00,0.00
2017-10-27 19:20:00,2,50000,0,0.00,2,2,0,2,50000,50000,0,50000,0,0,0,0,0.00,0.00,0.00,0.00
2017-10-27 19:30:00,2,37784,0,0.00,2,2,0,2,8869,50000,16629,50000,0,0,0,0,0.00,0.00,0.00,0.00
2017-10-27 19:40:00,2,7107,3,0.00,2,2,0,2,5286,9796,1258,7403,0,10,5,0,0.00,0.00,0.00,0.00
2017-10-27 19:50:00,2,3616,10,0.00,2,2,0,2,2262,5495,1023,3444,10,10,0,10,0.00,0.00,0.00,0.00
2017-10-27 20:00:00,2,4782,46,0.01,2,2,0,2,1574,8392,2389,4805,10,78,32,71,0.00,0.10,0.03,0.00
2017-10-27 20:10:00,2,21779,10,0.00,2,2,0,2,9612,44113,12267,15788,10,10,0,10,0.00,0.00,0.00,0.00
2017-10-27 20:20:00,2,23181,1,0.00,2,2,0,2,13907,37997,7115,22019,0,10,3,0,0.00,0.00,0.00,0.00
2017-10-27 20:30:00,2,23485,0,0.00,2,2,0,2,14637,36519,7778,21638,0,0,0,0,0.00,0.00,0.00,0.00
2017-10-27 20:40:00,2,15212,0,0.00,2,2,0,2,10259,21184,3465,13605,0,0,0,0,0.00,0.00,0.00,0.00
2017-10-27 20:50:00,2,8900,0,0.00,2,2,0,2,7390,11682,1324,8520,0,0,0,0,0.00,0.00,0.00,0.00
2017-10-27 21:00:00,2,14066,0,0.00,2,2,0,2,10767,17302,2046,13511,0,0,0,0,0.00,0.00,0.00,0.00
2017-10-27 21:10:00,2,17944,0,0.00,2,2,0,2,13894,22631,2852,17869,0,0,0,0,0.00,0.00,0.00,0.00
2017-10-27 21:20:00,2,15352,0,0.00,2,2,0,2,14247,18253,1312,14824,0,0,0,0,0.00,0.00,0.00,0.00
2017-10-27 21:30:00,2,10129,0,0.00,2,2,0,2,8576,13678,1540,9548,0,0,0,0,0.00,0.00,0.00,0.00
2017-10-27 21:40:00,2,10770,0,0.00,2,2,0,2,6499,16375,2920,9910,0,0,0,0,0.00,0.00,0.00,0.00
2017-10-27 21:50:00,2,12383,0,0.00,2,2,0,2,9417,14768,1531,12650,0,0,0,0,0.00,0.00,0.00,0.00
2017-10-27 22:00:00,2,14476,0,0.00,2,2,0,2,10452,18123,2186,14389,0,0,0,0,0.00,0.00,0.00,0.00
2017-10-27 22:10:00,2,13513,0,0.00,2,2,0,2,10394,16285,1691,12956,0,0,0,0,0.00,0.00,0.00,0.00
2017-10-27 22:20:00,2,15615,0,0.00,2,2,0,2,9038,32343,6705,13870,0,0,0,0,0.00,0.00,0.00,0.00
2017-10-27 22:30:00,2,17619,0,0.00,2,2,0,2,12183,28081,5601,15090,0,0,0,0,0.00,0.00,0.00,0.00
2017-10-27 22:40:00,2,35152,0,0.00,2,2,0,2,25175,40556,4867,36722,0,0,0,0,0.00,0.00,0.00,0.00
2017-10-27 22:50:00,2,17593,0,0.00,2,2,0,2,9130,25325,5471,19770,0,0,0,0,0.00,0.00,0.00,0.00
2017-10-27 23:00:00,2,11932,0,0.00,2,2,0,2,8681,15020,1989,11840,0,0,0,0,0.00,0.00,0.00,0.00
2017-10-27 23:10:00,2,17279,0,0.00,2,2,0,2,13506,23326,2698,17685,0,0,0,0,0.00,0.00,0.00,0.00
2017-10-27 23:20:00,2,18555,0,0.00,2,2,0,2,10160,26164,4702,18430,0,0,0,0,0.00,0.00,0.00,0.00
2017-10-27 23:30:00,2,17893,0,0.00,2,2,0,2,10860,22124,3345,18682,0,0,0,0,0.00,0.00,0.00,0.00
2017-10-27 23:40:00,2,39829,0,0.00,2,2,0,2,22489,49056,8053,41176,0,0,0,0,0.00,0.00,0.00,0.00
2017-10-27 23:50:00,2,43774,0,0.00,2,2,0,2,37652,48873,3477,44332,0,0,0,0,0.00,0.00,0.00,0.00
